Theta_e
299 304 303 301 300 299 299 298 298 297 297 297 296 296 295 294 294 293 292 290 289 287 286 285 284 283 282 282 282 283 285 286 286 287 287 287 288 288
304 302 301 301 299 299 297 297 297 297 296 296 295 295 294 293 293 292 290 289 288 287 286 284 284 283 282 282 282 283 284 284 285 285 286 286 287 287
301 301 300 300 298 297 297 296 296 296 295 295 295 294 294 293 292 291 290 289 288 286 285 284 284 283 282 283 282 282 282 283 284 284 285 285 286 286
301 301 300 299 297 297 297 296 296 296 295 295 295 294 293 292 291 291 289 288 287 286 285 285 284 283 284 283 283 282 282 282 283 283 284 284 284 285
301 300 298 298 297 297 297 296 296 296 295 294 294 293 292 292 291 290 289 288 287 286 285 285 284 284 284 284 284 284 283 283 283 283 284 284 283 284
300 298 298 297 297 297 297 296 296 295 295 294 294 293 292 291 290 289 288 288 287 286 286 285 285 285 285 285 285 285 285 284 284 284 283 284 283 285
299 298 297 297 297 296 296 296 295 295 295 294 294 292 292 291 290 289 288 288 286 286 286 286 285 285 285 285 285 285 285 284 284 283 283 283 283 285
298 297 297 297 297 296 296 295 294 294 294 294 293 292 292 291 290 289 288 287 286 286 286 285 285 285 285 285 285 285 285 284 284 283 283 283 283 284
297 296 296 295 295 294 294 294 294 293 293 293 293 292 292 291 290 289 288 287 285 285 285 285 285 285 285 285 285 285 285 284 284 284 284 283 283 283
295 294 294 294 294 294 294 294 294 294 293 293 293 292 291 290 289 288 287 285 285 285 285 285 285 285 285 284 284 284 284 285 284 284 285 284 284 283
293 293 293 293 293 292 293 293 293 293 293 293 292 291 290 290 288 287 285 284 284 285 285 285 285 284 284 284 284 284 285 284 285 285 285 285 285 285
292 292 292 292 292 292 292 291 291 291 292 292 292 291 290 289 288 286 285 283 284 284 285 285 284 284 283 283 284 283 283 283 285 285 285 286 286 286
289 289 289 289 290 291 291 291 291 290 290 291 292 291 289 288 287 287 286 284 284 284 285 284 283 283 283 283 283 283 283 283 284 285 286 285 286 286
284 283 284 283 283 283 284 287 290 290 290 290 290 290 290 289 287 287 285 285 285 285 284 284 283 283 282 282 283 282 283 283 284 285 285 285 286 286
281 281 281 281 281 282 282 283 283 287 288 289 289 289 289 289 288 287 286 286 285 285 284 283 283 282 282 282 282 282 283 283 284 285 285 285 286 287
279 279 279 282 285 286 286 286 286 286 287 288 288 289 289 288 288 287 286 285 284 284 284 284 283 283 282 282 282 282 282 283 284 284 284 286 287 286
278 279 282 283 283 284 285 286 287 287 287 288 288 289 288 287 287 286 286 285 284 284 284 284 283 283 283 283 282 283 284 284 284 284 285 286 287 286
278 281 281 280 281 281 281 283 284 285 288 288 288 288 288 287 287 286 285 285 284 284 284 284 283 283 283 283 284 284 284 283 283 284 285 286 286 285
279 279 279 279 278 278 279 280 281 284 286 288 287 287 287 287 287 286 285 285 284 284 284 284 283 283 283 283 283 284 283 282 283 284 285 286 286 285
278 278 277 277 277 276 277 277 278 281 285 286 286 287 287 287 286 286 285 285 284 284 284 284 283 283 283 283 282 282 283 283 283 284 285 286 287 286
276 276 276 275 275 274 275 276 277 280 282 285 286 287 286 286 286 286 285 285 284 284 284 283 283 283 282 281 282 284 284 283 283 284 285 285 286 285
274 274 273 273 273 273 273 274 275 279 281 282 286 286 286 286 285 285 285 285 284 283 283 283 283 282 281 283 283 284 285 284 284 284 284 285 285 284
272 272 272 271 271 272 272 273 274 277 278 280 282 285 285 285 285 285 285 285 284 283 283 283 282 282 281 283 283 283 284 284 284 285 284 284 284 284
Wind_Speed
13 12 11 12 14 14 14 14 15 18 18 17 17 17 18 18 19 20 21 25 30 36 33 34 33 32 31 32 32 31 29 29 28 29 29 31 31 31
11 10 12 13 15 16 14 15 16 18 23 18 19 20 19 21 23 28 24 27 29 29 32 33 35 37 35 34 34 31 28 26 25 25 26 27 28 28
11 13 15 17 17 17 17 18 18 18 22 23 21 21 21 22 23 24 23 25 26 25 28 33 36 37 34 32 31 28 25 23 23 24 25 26 27 28
11 24 16 19 20 21 21 20 22 21 23 27 25 24 23 23 24 25 25 23 24 25 27 32 33 32 32 29 26 25 24 22 23 24 24 25 26 26
27 18 18 22 24 23 24 24 24 24 24 26 27 25 24 24 25 24 24 24 25 23 26 27 29 29 31 29 28 25 23 21 22 24 26 26 26 26
25 19 22 25 26 26 27 28 28 28 28 28 28 27 26 25 23 24 26 23 24 23 24 25 25 25 27 28 28 26 23 23 25 28 35 32 25 21
27 27 23 26 27 30 32 32 30 31 31 31 27 27 27 26 23 23 25 26 25 23 23 23 22 23 23 24 24 24 17 23 29 35 31 29 23 22
33 29 24 25 26 30 33 34 40 42 38 34 30 29 29 27 24 24 24 24 27 19 21 25 21 23 23 23 22 24 27 30 32 28 30 28 24 24
32 26 21 24 27 29 31 35 37 37 41 46 41 36 31 28 25 24 24 24 26 23 22 26 22 24 23 21 23 25 28 27 25 27 28 26 26 29
21 23 26 28 28 29 32 35 35 36 37 38 46 46 33 28 25 23 22 22 24 22 19 26 22 24 21 23 25 24 24 26 24 29 27 29 27 25
22 23 25 28 30 31 34 36 38 40 37 38 36 34 35 34 31 26 25 20 26 22 18 21 22 23 25 27 23 21 19 22 24 29 31 27 26 25
23 24 26 29 31 32 33 36 38 40 37 34 37 38 38 38 37 36 31 25 23 24 16 18 20 20 27 22 13 24 27 23 24 25 27 24 26 26
32 33 32 32 34 36 37 36 39 39 37 38 38 34 32 25 26 27 27 24 22 22 17 18 20 21 21 28 25 24 25 25 24 26 25 22 24 30
32 35 35 38 40 41 41 45 46 40 38 36 40 43 33 29 27 24 24 23 21 23 21 19 22 21 24 27 28 27 25 22 23 26 26 27 27 33
30 33 37 38 39 39 38 37 38 38 36 39 38 39 39 31 28 28 27 25 22 22 21 18 20 19 21 25 28 25 25 26 20 24 25 26 31 36
30 35 35 31 30 32 32 31 32 32 34 33 36 37 36 33 26 27 27 24 22 20 16 17 18 18 21 20 22 26 23 22 23 26 24 23 28 31
32 30 25 28 30 30 28 27 28 29 30 29 33 36 32 23 24 25 25 23 21 19 17 15 14 16 18 20 24 19 17 18 19 24 18 24 23 26
23 21 24 26 26 28 28 28 31 27 26 25 29 34 28 21 22 24 24 23 20 16 15 13 13 14 15 17 16 18 13 16 19 17 17 18 19 18
17 19 22 24 25 26 27 27 29 28 28 27 21 25 24 20 21 22 23 24 20 15 14 12 12 12 14 15 13 9 12 13 15 14 12 9 11 15
16 18 20 22 24 25 26 28 29 26 25 19 20 23 23 19 20 21 23 25 21 14 13 12 12 12 12 12 14 9 6 9 11 13 15 7 5 9
17 18 20 20 22 24 25 25 27 26 22 20 22 20 18 18 20 20 23 25 21 14 13 12 11 14 16 15 10 15 9 8 9 13 14 9 7 10
17 18 20 21 22 23 24 24 26 25 21 18 17 19 17 17 19 21 23 24 20 16 13 11 10 9 6 9 10 10 9 4 6 9 11 10 10 8
18 19 21 22 22 23 22 22 23 25 22 20 11 5 16 15 18 19 23 22 18 14 12 11 9 8 8 8 9 8 4 1 2 5 6 6 7 9
Wind_Direction
242 257 257 263 265 267 268 268 271 278 275 275 277 274 279 276 275 271 276 280 282 286 297 302 306 307 303 300 298 295 289 285 284 281 279 277 277 277
250 256 256 262 266 268 267 266 266 269 277 278 278 278 278 276 274 279 282 284 290 295 298 300 302 304 305 301 299 295 291 287 285 284 281 280 281 279
232 269 266 258 262 263 264 267 267 269 274 278 278 281 280 279 281 282 282 284 286 291 292 294 296 304 305 307 301 296 293 290 288 286 285 283 283 282
261 290 268 260 258 261 261 263 265 268 271 276 280 281 281 281 281 281 283 284 286 288 291 294 301 306 315 318 318 310 298 294 295 293 291 287 284 282
296 290 264 260 262 260 262 263 265 269 270 272 276 279 280 281 283 282 282 284 289 294 295 297 300 301 307 315 315 314 306 300 303 301 301 296 289 284
291 283 271 263 262 263 264 265 266 267 265 266 270 275 277 280 280 281 283 284 287 290 290 295 298 302 304 307 306 302 304 302 301 302 305 299 294 287
291 297 283 269 265 263 262 262 266 267 266 263 266 271 275 280 280 282 282 286 287 289 294 294 295 298 300 302 300 303 292 297 296 296 300 299 283 291
291 292 277 274 275 275 275 274 265 259 261 267 268 266 271 275 276 277 279 282 286 288 290 292 298 300 302 302 297 296 289 291 297 301 302 301 282 281
290 291 284 277 274 274 273 275 273 269 261 258 257 261 268 271 274 273 273 276 279 285 290 292 298 298 302 300 296 293 296 294 300 315 311 306 293 283
287 281 279 280 279 278 276 270 270 271 271 260 256 255 257 261 260 263 265 271 276 283 285 286 297 298 299 301 301 296 293 288 305 312 315 315 304 299
287 284 282 282 281 278 275 273 272 268 265 261 260 257 257 260 256 251 257 266 271 278 281 285 293 295 301 304 304 302 305 307 301 309 314 313 309 307
291 289 287 284 285 287 288 283 279 271 269 264 256 251 253 258 258 256 260 258 261 273 280 285 291 298 304 305 299 303 303 298 301 307 311 310 305 299
290 293 291 288 281 278 278 279 276 280 276 268 262 254 243 244 255 260 257 250 250 261 276 285 289 292 291 296 302 304 305 301 309 314 315 310 301 303
296 296 295 293 293 291 283 278 277 279 267 266 263 264 253 239 236 236 247 256 255 260 270 277 284 284 290 295 300 309 312 311 314 314 317 319 316 322
306 305 308 310 310 306 299 290 283 279 280 276 256 257 254 248 239 240 235 235 244 254 262 271 278 281 283 289 297 306 310 310 315 316 321 321 328 335
312 314 315 321 319 313 309 305 298 293 278 277 266 261 256 241 246 239 237 236 239 257 266 267 274 272 284 288 295 300 305 302 314 316 325 335 343 341
315 320 327 315 314 310 310 312 307 293 280 279 274 248 244 242 247 243 243 231 236 247 261 268 273 277 281 288 290 296 302 306 311 318 339 341 356 353
324 321 315 318 320 318 314 308 308 314 283 284 273 258 247 239 246 242 238 231 230 243 254 266 274 279 287 296 302 275 296 302 314 338 346 342 7 23
321 320 319 319 318 321 323 319 315 303 302 263 278 259 241 240 239 241 244 232 228 239 249 261 265 274 284 294 304 303 300 314 333 344 345 352 19 28
323 320 319 318 320 318 321 324 321 316 320 302 283 253 236 238 240 240 240 239 226 232 244 253 259 264 270 288 288 283 293 332 346 359 3 1 28 35
323 320 318 317 315 318 320 321 324 328 321 283 286 251 239 239 242 241 240 236 229 226 239 249 257 255 262 278 292 306 276 326 349 6 14 17 3 25
316 317 316 315 315 317 321 322 323 331 330 359 280 247 238 238 241 246 239 233 220 223 232 244 243 271 259 258 278 295 273 267 325 358 8 29 43 33
315 314 314 314 316 316 318 320 322 326 331 328 346 290 255 245 246 242 235 227 212 217 222 232 238 245 253 254 269 279 315 302 282 245 341 12 32 34